Weather History for KVLD - April, 2014

Change the Weather History Date:

Sunday, April 13, 2014

  Actual Average Record
Temperature  
Mean Temperature 72 °F 65 °F  
Max Temperature 87 °F 78 °F - ()
Min Temperature 57 °F 52 °F - ()
Degree Days  
Heating Degree Days 0 3  
Month to date heating degree days 0 43  
Since 1 July heating degree days 1210 1609  
Cooling Degree Days 7 3  
Month to date cooling degree days 69 28  
Year to date cooling degree days 134 71  
Growing Degree Days 22 (Base 50)    
Moisture  
Dew Point 55 °F    
Average Humidity 58    
Maximum Humidity 86    
Minimum Humidity 29    
Precipitation  
Precipitation 0.00 in 0.12 in - ()
Month to date precipitation 2.62 1.49  
Year to date precipitation 12.92 15.09  
Sea Level Pressure  
Sea Level Pressure 30.14 in    
Wind  
Wind Speed 4 mph (SE)    
Max Wind Speed 13 mph    
Max Gust Speed 21 mph    
Visibility 10 miles    
Events      
T = Trace of Precipitation, MM = Missing Value Source: NWS Daily Summary

Daily Weather History Graph

Daily Weather History Graph

Search for Another Location

Airport or City:

Trip Planner

Search our weather history database for the weather conditions in past years. The results will help you decide how hot, cold, wet, or windy it might be!

Date:

Astronomy

Apr. 13, 2014 Rise Set
Actual Time 7:07 AM EDT 7:59 PM EDT
Civil Twilight 6:43 AM EDT 8:24 PM EDT
Nautical Twilight 6:14 AM EDT 8:53 PM EDT
Astronomical Twilight 5:44 AM EDT 9:23 PM EDT
Moon 6:41 PM EDT (4/13) 5:59 AM EDT (4/13)
Length of Visible Light 13h 41m
Length of Day
12h 52m
Waxing Gibbous, 97% of the Moon is Illuminated
Apr 13
Waxing Gibbous
Apr 15
Full
Apr 22
Last Quarter
Apr 29
New
May 6
First Quarter

Hourly Weather History & Observations

Time (EDT) Temp. Heat Index Dew Point Humidity Pressure Visibility Wind Dir Wind Speed Gust Speed Precip Events Conditions
12:53 AM 64.9 °F - 54.0 °F 68% 30.18 in 10.0 mi South 4.6 mph - N/A   Clear
1:53 AM 62.1 °F - 53.1 °F 72% 30.18 in 10.0 mi Calm Calm - N/A   Clear
2:53 AM 61.0 °F - 54.0 °F 78% 30.17 in 10.0 mi Calm Calm - N/A   Clear
3:53 AM 59.0 °F - 53.1 °F 81% 30.17 in 10.0 mi Calm Calm - N/A   Partly Cloudy
4:53 AM 59.0 °F - 53.1 °F 81% 30.16 in 9.0 mi Calm Calm - N/A   Mostly Cloudy
5:53 AM 57.9 °F - 53.1 °F 84% 30.15 in 6.0 mi Calm Calm - N/A   Haze
6:53 AM 57.0 °F - 52.0 °F 83% 30.17 in 7.0 mi Calm Calm - N/A   Clear
7:53 AM 61.0 °F - 54.0 °F 78% 30.19 in 9.0 mi Calm Calm - N/A   Clear
8:53 AM 68.0 °F - 60.1 °F 76% 30.21 in 10.0 mi SSE 5.8 mph - N/A   Clear
9:53 AM 75.0 °F - 60.1 °F 60% 30.20 in 10.0 mi SE 6.9 mph - N/A   Clear
10:53 AM 79.0 °F - 57.9 °F 48% 30.20 in 10.0 mi SE 9.2 mph - N/A   Clear
11:53 AM 81.0 °F 80.7 °F 55.0 °F 41% 30.19 in 10.0 mi ESE 6.9 mph - N/A   Clear
12:53 PM 82.9 °F - 51.1 °F 33% 30.17 in 10.0 mi SSE 6.9 mph - N/A   Clear
1:53 PM 84.0 °F - 51.1 °F 32% 30.15 in 10.0 mi Variable 5.8 mph 16.1 mph N/A   Clear
2:53 PM 87.1 °F - 52.0 °F 30% 30.12 in 10.0 mi ESE 11.5 mph 18.4 mph N/A   Clear
3:53 PM 84.0 °F 82.6 °F 54.0 °F 35% 30.09 in 10.0 mi South 6.9 mph - N/A   Partly Cloudy
4:53 PM 84.0 °F 82.6 °F 54.0 °F 35% 30.06 in 10.0 mi Calm Calm - N/A   Partly Cloudy
5:53 PM 84.9 °F 83.3 °F 54.0 °F 34% 30.06 in 10.0 mi SSE 3.5 mph - N/A   Partly Cloudy
6:53 PM 82.9 °F 82.0 °F 55.0 °F 38% 30.05 in 10.0 mi ESE 4.6 mph - N/A   Partly Cloudy
8:53 PM 75.9 °F - 57.9 °F 54% 30.05 in 10.0 mi ESE 3.5 mph - N/A   Partly Cloudy
9:53 PM 75.9 °F - 60.1 °F 58% 30.07 in 10.0 mi ESE 9.2 mph 17.3 mph N/A   Scattered Clouds
10:53 PM 73.9 °F - 59.0 °F 59% 30.09 in 10.0 mi SSE 9.2 mph - N/A   Clear
11:53 PM 72.0 °F - 57.9 °F 61% 30.08 in 10.0 mi SE 4.6 mph - N/A   Clear